Weather History for Erie, PA

Change the Weather History Date:

Monday, July 29, 2013

  Actual Average Record
Temperature  
Mean Temperature 66 °F 72 °F  
Max Temperature 73 °F 80 °F 92 °F (1940)
Min Temperature 58 °F 64 °F 50 °F (1972)
Degree Days  
Heating Degree Days 0 0  
Month to date heating degree days 3 2  
Since 1 June heating degree days 71 63  
Since 1 July heating degree days 3 2  
Cooling Degree Days 1 7  
Month to date cooling degree days 241 201  
Year to date cooling degree days 444 363  
Since 1 June cooling degree days 359 324  
Growing Degree Days 15 (Base 50)    
Moisture  
Dew Point 54 °F    
Average Humidity 68    
Maximum Humidity 86    
Minimum Humidity 49    
Precipitation  
Precipitation 0.02 in 0.12 in 1.86 in (1983)
Month to date precipitation 5.62 3.30  
Year to date precipitation 30.13 22.12  
Snow  
Snow 0.00 in 0.00 in - ()
Month to date snowfall 0.0 0.0  
Since 1 June snowfall 0.0 0.0  
Since 1 July snowfall 0.0 0.0  
Snow Depth 0.00 in    
Sea Level Pressure  
Sea Level Pressure 30.09 in    
Wind  
Wind Speed 8 mph (SW)    
Max Wind Speed 16 mph    
Max Gust Speed 22 mph    
Visibility 10 miles    
Events Rain    
T = Trace of Precipitation, MM = Missing Value Source: NWS Daily Summary

Daily Weather History Graph

Daily Weather History Graph

Search for Another Location

Airport:

Trip Planner

Search our weather history database for the weather conditions in past years. The results will help you decide how hot, cold, wet, or windy it might be!

Date:

Astronomy

Jul. 29, 2013 Rise Set
Actual Time 6:11 AM EDT 8:42 PM EDT
Civil Twilight 5:39 AM EDT 9:14 PM EDT
Nautical Twilight 4:59 AM EDT 9:53 PM EDT
Astronomical Twilight 4:14 AM EDT 10:38 PM EDT
Moon No Moon Rise 2:00 PM EDT (7/29)
Length of Visible Light 15h 35m
Length of Day
14h 31m
Waning Gibbous, 51% of the Moon is Illuminated
Jul 29
Waning Gibbous
Jul 29
Last Quarter
Aug 6
New
Aug 14
First Quarter
Aug 20
Full

Hourly Weather History & Observations

Time (EDT) Temp. Dew Point Humidity Pressure Visibility Wind Dir Wind Speed Gust Speed Precip Events Conditions
12:51 AM 62.1 °F 51.1 °F 67% 30.00 in 10.0 mi SSW 11.5 mph - N/A   Mostly Cloudy
1:51 AM 61.0 °F 52.0 °F 72% 30.00 in 10.0 mi SW 10.4 mph - 0.00 in   Overcast
2:51 AM 61.0 °F 52.0 °F 72% 29.99 in 10.0 mi SSW 12.7 mph - N/A   Scattered Clouds
3:51 AM 59.0 °F 54.0 °F 83% 30.01 in 10.0 mi SSW 4.6 mph - 0.00 in   Mostly Cloudy
4:51 AM 60.1 °F 52.0 °F 75% 30.01 in 10.0 mi SSW 9.2 mph - N/A   Overcast
5:51 AM 59.0 °F 54.0 °F 83% 30.03 in 10.0 mi SW 5.8 mph - 0.00 in   Overcast
6:51 AM 57.9 °F 54.0 °F 87% 30.04 in 10.0 mi South 4.6 mph - 0.00 in   Overcast
7:51 AM 60.1 °F 53.1 °F 78% 30.05 in 10.0 mi SW 8.1 mph - 0.00 in   Mostly Cloudy
8:51 AM 62.1 °F 53.1 °F 72% 30.05 in 10.0 mi SW 8.1 mph - N/A   Overcast
9:51 AM 59.0 °F 53.1 °F 81% 30.08 in 3.0 mi SW 9.2 mph - 0.00 in Rain Light Rain
10:51 AM 61.0 °F 54.0 °F 78% 30.07 in 10.0 mi Calm Calm - 0.02 in   Overcast
11:51 AM 69.1 °F 54.0 °F 58% 30.07 in 10.0 mi SW 9.2 mph - N/A   Overcast
12:51 PM 70.0 °F 52.0 °F 53% 30.07 in 10.0 mi West 10.4 mph - N/A   Mostly Cloudy
1:51 PM 72.0 °F 51.1 °F 48% 30.08 in 10.0 mi West 15.0 mph 20.7 mph N/A   Mostly Cloudy
2:51 PM 68.0 °F 52.0 °F 56% 30.09 in 10.0 mi WSW 6.9 mph - N/A   Overcast
3:51 PM 66.0 °F 53.1 °F 63% 30.11 in 10.0 mi WSW 9.2 mph 18.4 mph 0.00 in Rain Light Rain
4:51 PM 64.9 °F 55.0 °F 70% 30.12 in 10.0 mi WSW 4.6 mph - 0.00 in   Overcast
5:16 PM 66.2 °F 55.4 °F 68% 30.12 in 10.0 mi SW 9.2 mph - N/A   Overcast
5:24 PM 66.2 °F 55.4 °F 68% 30.12 in 10.0 mi SW 5.8 mph - N/A   Overcast
5:33 PM 66.2 °F 55.4 °F 68% 30.12 in 10.0 mi SW 8.1 mph - N/A   Overcast
5:51 PM 66.0 °F 55.0 °F 68% 30.13 in 10.0 mi SW 6.9 mph - N/A   Overcast
6:07 PM 66.2 °F 55.4 °F 68% 30.13 in 10.0 mi SSW 8.1 mph - N/A   Overcast
6:16 PM 66.2 °F 55.4 °F 68% 30.13 in 10.0 mi SW 6.9 mph - N/A   Overcast
6:51 PM 69.1 °F 55.9 °F 63% 30.13 in 10.0 mi West 11.5 mph 19.6 mph N/A   Mostly Cloudy
7:29 PM 68.0 °F 57.2 °F 68% 30.13 in 10.0 mi West 6.9 mph - N/A   Overcast
7:36 PM 68.0 °F 55.4 °F 64% 30.13 in 10.0 mi West 10.4 mph - N/A   Mostly Cloudy
7:51 PM 68.0 °F 55.9 °F 65% 30.14 in 10.0 mi West 11.5 mph - N/A   Mostly Cloudy
8:51 PM 66.9 °F 55.0 °F 66% 30.15 in 10.0 mi West 8.1 mph - N/A   Mostly Cloudy
9:51 PM 64.9 °F 55.9 °F 73% 30.16 in 10.0 mi SSW 4.6 mph - N/A   Overcast
10:51 PM 63.0 °F 57.0 °F 81% 30.18 in 10.0 mi SSW 4.6 mph - N/A   Mostly Cloudy
11:51 PM 62.1 °F 55.9 °F 80% 30.18 in 10.0 mi SSW 4.6 mph - N/A   Mostly Cloudy